TimeEEST,TemperatureF,Dew PointF,Humidity,Sea Level PressureIn,VisibilityMPH,Wind Direction,Wind SpeedMPH,Gust SpeedMPH,PrecipitationIn,Events,Conditions,WindDirDegrees,DateUTC
4:50 AM,71.6,62.6,73,29.92,-9999.0,NNE,3.5,-,N/A,,Clear,30,2012-10-05 01:50:00
5:20 AM,71.6,62.6,73,29.92,-9999.0,North,9.2,-,N/A,,Clear,360,2012-10-05 02:20:00
5:50 AM,71.6,62.6,73,29.92,-9999.0,North,12.7,-,N/A,,Clear,10,2012-10-05 02:50:00
6:20 AM,71.6,59.0,64,29.92,-9999.0,North,13.8,-,N/A,,Clear,10,2012-10-05 03:20:00
6:50 AM,71.6,59.0,64,29.89,5.0,North,11.5,-,N/A,,Unknown,10,2012-10-05 03:50:00
7:20 AM,71.6,62.6,73,29.89,5.0,NNE,4.6,-,N/A,,Unknown,30,2012-10-05 04:20:00
7:50 AM,71.6,66.2,83,29.92,5.6,NNE,8.1,-,N/A,,Unknown,20,2012-10-05 04:50:00
8:20 AM,71.6,66.2,83,29.92,5.6,NNE,4.6,-,N/A,,Unknown,20,2012-10-05 05:20:00
8:50 AM,71.6,66.2,83,29.92,5.6,NE,5.8,-,N/A,,Unknown,40,2012-10-05 05:50:00
9:00 AM,72,67,79,29.93,6,NE,5.8,,,,Mist,40,2012-10-05 06:00:00
9:20 AM,73.4,66.2,78,29.92,5.6,NE,9.2,-,N/A,,Unknown,40,2012-10-05 06:20:00
9:50 AM,73.4,68.0,83,29.92,5.6,NNE,11.5,-,N/A,,Unknown,20,2012-10-05 06:50:00
10:20 AM,75.2,68.0,78,29.92,5.6,NNE,13.8,-,N/A,,Unknown,20,2012-10-05 07:20:00
10:50 AM,75.2,66.2,73,29.92,5.6,NNE,11.5,-,N/A,,Unknown,20,2012-10-05 07:50:00
11:20 AM,77.0,66.2,69,29.92,-9999.0,NNE,13.8,-,N/A,,Clear,20,2012-10-05 08:20:00
11:50 AM,78.8,66.2,65,29.92,-9999.0,North,13.8,-,N/A,,Clear,10,2012-10-05 08:50:00
12:20 PM,78.8,66.2,65,29.92,-9999.0,North,13.8,-,N/A,,Clear,10,2012-10-05 09:20:00
12:50 PM,80.6,66.2,61,29.92,-9999.0,North,13.8,-,N/A,,Clear,10,2012-10-05 09:50:00
1:20 PM,80.6,66.2,61,29.92,-9999.0,North,13.8,-,N/A,,Clear,10,2012-10-05 10:20:00
1:50 PM,82.4,69.8,66,29.92,-9999.0,NNE,13.8,-,N/A,,Clear,20,2012-10-05 10:50:00
2:20 PM,82.4,69.8,66,29.92,-9999.0,NNE,13.8,-,N/A,,Clear,20,2012-10-05 11:20:00
2:50 PM,82.4,68.0,62,29.92,-9999.0,North,13.8,-,N/A,,Clear,10,2012-10-05 11:50:00
3:00 PM,83,69,53,29.92,6,North,13.8,,,,,10,2012-10-05 12:00:00
3:20 PM,84.2,68.0,58,29.92,-9999.0,NNE,13.8,-,N/A,,Clear,20,2012-10-05 12:20:00
3:50 PM,84.2,68.0,58,29.89,-9999.0,North,11.5,-,N/A,,Clear,360,2012-10-05 12:50:00
4:20 PM,84.2,69.8,62,29.89,-9999.0,North,9.2,-,N/A,,Clear,350,2012-10-05 13:20:00
4:50 PM,84.2,69.8,62,29.89,-9999.0,North,10.4,-,N/A,,Clear,350,2012-10-05 13:50:00
5:20 PM,84.2,69.8,62,29.89,-9999.0,NW,9.2,-,N/A,,Clear,320,2012-10-05 14:20:00
5:50 PM,82.4,57.2,42,29.89,-9999.0,NW,8.1,-,N/A,,Clear,320,2012-10-05 14:50:00
6:20 PM,80.6,57.2,45,29.89,-9999.0,NNW,12.7,-,N/A,,Clear,340,2012-10-05 15:20:00
6:50 PM,78.8,57.2,47,29.92,-9999.0,North,13.8,-,N/A,,Clear,350,2012-10-05 15:50:00
7:20 PM,78.8,55.4,44,29.92,-9999.0,North,12.7,-,N/A,,Clear,350,2012-10-05 16:20:00
7:50 PM,78.8,59.0,51,29.92,-9999.0,North,13.8,-,N/A,,Clear,350,2012-10-05 16:50:00
8:20 PM,78.8,59.0,51,29.95,-9999.0,North,13.8,-,N/A,,Clear,350,2012-10-05 17:20:00
8:50 PM,78.8,59.0,51,29.95,-9999.0,North,15.0,-,N/A,,Clear,350,2012-10-05 17:50:00
9:00 PM,78,58,40,29.95,6,North,15.0,,,,,350,2012-10-05 18:00:00
9:50 PM,77.0,57.2,50,29.95,-9999.0,North,11.5,-,N/A,,Clear,350,2012-10-05 18:50:00